GFSFLT2_prec_precacc_111.txt.gz
Total_Precipitation_Accumulation
10.33 6.89 6.24 5.55 6.20 3.91 1.58 1.50 1.65 2.05 2.18 2.17 2.52 2.89 1.96 1.43 0.90 0.66 0.69 0.70 0.37 0.34 0.29 0.39 0.57 0.53 0.22 0.24 0.28 0.30 0.22 0.53
6.82 5.47 4.75 4.34 4.46 5.06 3.46 2.30 1.97 1.75 1.69 1.58 1.51 2.07 1.98 1.37 0.86 0.64 0.74 0.67 0.48 0.39 0.48 0.62 0.55 0.42 0.31 0.28 0.25 0.24 0.07 0.11
3.54 2.44 1.70 1.94 2.04 2.50 3.09 3.09 2.51 2.53 2.74 1.90 1.43 1.38 1.81 1.37 0.94 0.60 0.65 0.69 0.59 0.49 0.60 0.63 0.50 0.40 0.27 0.20 0.13 0.06 0.11 0.06
1.28 0.80 0.43 0.47 0.60 0.76 1.27 2.04 2.40 2.14 3.45 2.34 1.94 1.11 1.21 1.08 1.16 0.77 0.68 0.89 0.65 0.74 0.60 0.46 0.36 0.25 0.17 0.12 0.04 0.05 0.08 0.07
0.74 0.52 0.30 0.33 0.26 0.31 0.49 1.13 1.96 2.22 2.39 2.24 2.24 1.28 1.40 1.13 1.29 1.00 0.81 1.23 0.84 0.79 0.59 0.42 0.26 0.24 0.22 0.14 0.20 0.14 0.11 0.07
0.32 0.35 0.36 0.51 0.36 0.25 0.30 0.72 1.51 1.73 1.38 1.17 1.56 1.07 1.05 1.08 0.85 0.87 0.68 1.14 0.80 0.55 0.38 0.31 0.32 0.34 0.28 0.23 0.17 0.15 0.13 0.06
0.39 0.18 0.25 0.23 0.23 0.24 0.23 0.58 0.82 1.10 0.99 0.40 1.02 0.83 0.60 0.96 0.77 0.74 0.55 1.10 0.66 0.37 0.41 0.31 0.34 0.35 0.35 0.30 0.13 0.20 0.10 0.07
0.47 0.41 0.35 0.30 0.23 0.31 0.30 0.46 0.82 0.74 0.89 0.38 0.26 0.41 0.57 0.96 0.88 0.75 0.50 0.74 0.63 0.52 0.33 0.39 0.37 0.48 0.32 0.25 0.20 0.23 0.07 0.04
0.62 1.02 0.50 0.34 0.28 0.31 0.34 0.25 0.45 0.67 0.78 0.54 0.23 0.13 0.30 0.52 0.72 0.56 0.54 0.62 0.53 0.69 0.62 0.46 0.47 0.73 0.43 0.29 0.18 0.24 0.11 0.02
0.66 1.27 0.93 0.48 0.27 0.32 0.37 0.47 0.44 0.54 0.60 0.56 0.30 0.22 0.21 0.26 0.44 0.68 0.54 0.61 0.43 0.46 0.69 0.50 0.45 0.65 0.64 0.35 0.28 0.23 0.25 0.03
0.50 0.80 1.08 0.97 0.76 0.71 0.56 0.47 0.53 0.50 0.41 0.45 0.31 0.26 0.29 0.22 0.30 0.41 0.71 0.47 0.37 0.48 0.57 0.60 0.41 0.51 0.67 0.50 0.36 0.26 0.19 0.02
0.58 0.72 1.21 1.58 0.87 0.35 0.41 0.64 0.53 0.48 0.32 0.37 0.45 0.33 0.43 0.39 0.36 0.28 0.36 0.52 0.44 0.59 0.70 0.65 0.53 0.43 0.59 0.65 0.36 0.36 0.17 0.01
0.64 1.00 0.97 0.47 0.23 0.14 0.26 0.46 0.59 0.53 0.39 0.30 0.52 0.57 0.55 0.69 0.63 0.60 0.39 0.18 0.39 0.47 0.82 0.87 0.74 0.52 0.77 0.86 0.69 0.34 0.23 0.03
0.33 0.15 0.13 0.04 0.06 0.08 0.11 0.21 0.41 0.41 0.34 0.18 0.34 0.59 0.83 0.69 0.61 0.74 0.69 0.36 0.17 0.30 0.62 1.05 0.92 0.60 0.64 0.70 0.52 0.30 0.13 0.03
0.06 0.08 0.14 0.05 0.04 0.05 0.09 0.27 0.43 0.34 0.38 0.24 0.22 0.30 0.63 0.85 0.75 0.65 0.71 0.45 0.19 0.12 0.24 0.67 0.68 0.65 0.40 0.47 0.27 0.24 0.13 0.05
0.06 0.12 0.15 0.05 0.02 0.03 0.04 0.13 0.23 0.24 0.22 0.18 0.14 0.19 0.30 0.59 0.84 0.69 0.64 0.71 0.50 0.18 0.10 0.31 0.57 0.57 0.59 0.51 0.23 0.21 0.23 0.22
0.08 0.13 0.19 0.09 0.02 0.07 0.14 0.16 0.19 0.23 0.19 0.14 0.11 0.12 0.17 0.27 0.49 0.61 0.57 0.51 0.53 0.43 0.27 0.28 0.52 0.67 0.67 0.49 0.33 0.32 0.35 0.27
0.10 0.13 0.22 0.16 0.08 0.08 0.14 0.18 0.16 0.15 0.11 0.10 0.07 0.09 0.13 0.16 0.29 0.35 0.47 0.55 0.66 0.73 0.71 0.59 0.47 0.62 0.81 0.65 0.39 0.36 0.34 0.29
0.08 0.07 0.10 0.12 0.14 0.07 0.06 0.13 0.16 0.16 0.13 0.17 0.13 0.08 0.09 0.20 0.32 0.31 0.28 0.42 0.80 0.98 1.09 0.80 0.61 0.61 0.69 0.69 0.62 0.43 0.37 0.36
0.12 0.11 0.11 0.07 0.13 0.17 0.21 0.26 0.32 0.38 0.36 0.31 0.20 0.21 0.24 0.40 0.57 0.65 0.52 0.42 0.50 0.72 0.91 0.99 1.04 0.81 0.67 0.58 0.52 0.47 0.47 0.47

GFSFLT2_prec_precacc_114.txt.gz
Total_Precipitation_Accumulation
10.33 6.89 6.24 5.55 6.20 3.91 1.58 1.50 1.65 2.05 2.18 2.17 2.52 2.89 1.96 1.43 0.90 0.66 0.69 0.70 0.37 0.34 0.29 0.39 0.57 0.53 0.22 0.26 0.28 0.31 0.24 0.70
6.82 5.47 4.75 4.34 4.46 5.06 3.46 2.30 1.97 1.75 1.69 1.58 1.51 2.07 1.98 1.37 0.86 0.64 0.74 0.67 0.48 0.39 0.48 0.62 0.55 0.46 0.47 0.41 0.31 0.25 0.07 0.12
3.54 2.44 1.70 1.94 2.04 2.50 3.09 3.09 2.51 2.53 2.74 1.90 1.43 1.38 1.81 1.37 0.94 0.61 0.69 0.69 0.59 0.49 0.60 0.63 0.50 0.43 0.31 0.24 0.18 0.13 0.12 0.06
1.28 0.80 0.43 0.47 0.60 0.76 1.27 2.04 2.40 2.14 3.45 2.34 1.94 1.11 1.21 1.08 1.16 0.77 0.69 0.89 0.65 0.74 0.60 0.46 0.36 0.25 0.17 0.13 0.05 0.06 0.08 0.07
0.74 0.52 0.30 0.33 0.26 0.31 0.49 1.13 1.96 2.22 2.39 2.24 2.24 1.28 1.40 1.13 1.29 1.00 0.81 1.23 0.84 0.79 0.59 0.42 0.26 0.24 0.22 0.14 0.20 0.14 0.11 0.07
0.32 0.35 0.36 0.51 0.36 0.25 0.30 0.72 1.51 1.73 1.38 1.17 1.56 1.07 1.05 1.08 0.85 0.87 0.68 1.14 0.80 0.55 0.38 0.31 0.32 0.34 0.28 0.23 0.17 0.15 0.13 0.07
0.39 0.18 0.25 0.23 0.23 0.24 0.23 0.58 0.82 1.10 0.99 0.40 1.02 0.83 0.60 0.96 0.77 0.75 0.55 1.10 0.66 0.37 0.41 0.31 0.34 0.35 0.35 0.30 0.13 0.20 0.11 0.12
0.47 0.41 0.35 0.30 0.23 0.31 0.30 0.46 0.82 0.74 0.89 0.38 0.26 0.41 0.57 0.96 0.88 0.75 0.51 0.76 0.64 0.52 0.33 0.39 0.37 0.48 0.32 0.25 0.20 0.23 0.08 0.08
0.62 1.02 0.50 0.34 0.28 0.31 0.34 0.25 0.45 0.67 0.78 0.54 0.23 0.13 0.30 0.52 0.72 0.56 0.54 0.62 0.54 0.69 0.62 0.46 0.47 0.73 0.43 0.29 0.18 0.24 0.12 0.04
0.66 1.27 0.93 0.48 0.27 0.32 0.37 0.47 0.44 0.54 0.60 0.56 0.30 0.22 0.21 0.26 0.44 0.68 0.54 0.61 0.43 0.46 0.69 0.50 0.45 0.65 0.64 0.36 0.28 0.23 0.28 0.07
0.50 0.80 1.08 0.97 0.76 0.71 0.56 0.47 0.53 0.50 0.41 0.45 0.31 0.26 0.29 0.22 0.30 0.41 0.71 0.47 0.37 0.48 0.57 0.60 0.41 0.51 0.67 0.51 0.36 0.28 0.32 0.27
0.58 0.72 1.21 1.58 0.87 0.35 0.41 0.64 0.53 0.48 0.32 0.37 0.45 0.33 0.43 0.39 0.36 0.28 0.36 0.52 0.44 0.59 0.70 0.65 0.54 0.44 0.59 0.66 0.36 0.38 0.31 0.36
0.64 1.00 0.97 0.47 0.24 0.15 0.26 0.46 0.59 0.53 0.39 0.30 0.52 0.57 0.55 0.69 0.63 0.60 0.39 0.19 0.39 0.48 0.83 0.88 0.75 0.53 0.78 0.89 0.70 0.36 0.35 0.30
0.33 0.15 0.13 0.04 0.06 0.09 0.16 0.22 0.41 0.41 0.34 0.18 0.34 0.59 0.83 0.69 0.61 0.74 0.69 0.36 0.17 0.31 0.63 1.07 0.94 0.62 0.66 0.75 0.59 0.39 0.29 0.35
0.06 0.08 0.14 0.05 0.04 0.11 0.17 0.33 0.46 0.35 0.38 0.24 0.22 0.30 0.63 0.85 0.75 0.65 0.71 0.45 0.19 0.12 0.24 0.68 0.68 0.66 0.41 0.49 0.32 0.32 0.20 0.26
0.06 0.12 0.15 0.05 0.02 0.03 0.05 0.13 0.23 0.24 0.22 0.18 0.14 0.19 0.30 0.59 0.84 0.69 0.64 0.71 0.50 0.18 0.10 0.31 0.57 0.58 0.61 0.56 0.26 0.24 0.26 0.32
0.08 0.15 0.28 0.20 0.10 0.11 0.16 0.17 0.19 0.23 0.19 0.14 0.11 0.12 0.17 0.27 0.49 0.61 0.57 0.51 0.53 0.43 0.27 0.28 0.52 0.67 0.68 0.57 0.48 0.38 0.39 0.30
0.10 0.13 0.24 0.26 0.19 0.22 0.26 0.25 0.17 0.15 0.11 0.10 0.07 0.10 0.13 0.16 0.29 0.35 0.47 0.55 0.66 0.73 0.71 0.59 0.47 0.63 0.81 0.69 0.50 0.44 0.39 0.33
0.08 0.07 0.10 0.12 0.16 0.10 0.08 0.15 0.19 0.17 0.13 0.17 0.13 0.10 0.09 0.20 0.32 0.31 0.28 0.42 0.80 0.98 1.10 0.81 0.62 0.61 0.70 0.70 0.68 0.49 0.44 0.46
0.12 0.11 0.11 0.07 0.13 0.17 0.21 0.27 0.35 0.38 0.36 0.31 0.20 0.22 0.26 0.40 0.57 0.65 0.52 0.42 0.50 0.72 0.91 0.99 1.04 0.81 0.67 0.59 0.54 0.56 0.60 0.60

GFSFLT2_prec_precacc_117.txt.gz
Total_Precipitation_Accumulation
10.33 6.89 6.24 5.55 6.20 3.91 1.58 1.50 1.65 2.05 2.18 2.17 2.52 2.89 1.96 1.43 0.90 0.66 0.69 0.70 0.37 0.34 0.29 0.39 0.57 0.53 0.23 0.26 0.29 0.31 0.25 0.71
6.82 5.47 4.75 4.34 4.46 5.06 3.46 2.30 1.97 1.75 1.69 1.58 1.51 2.07 1.98 1.37 0.86 0.64 0.74 0.67 0.48 0.39 0.48 0.62 0.57 0.53 0.54 0.46 0.35 0.26 0.08 0.12
3.54 2.44 1.70 1.94 2.04 2.50 3.09 3.09 2.51 2.53 2.74 1.90 1.43 1.38 1.81 1.37 0.94 0.61 0.69 0.69 0.59 0.49 0.60 0.63 0.53 0.44 0.31 0.24 0.20 0.20 0.12 0.06
1.28 0.80 0.43 0.47 0.60 0.76 1.27 2.04 2.40 2.14 3.45 2.34 1.94 1.11 1.21 1.08 1.16 0.78 0.69 0.89 0.65 0.74 0.60 0.46 0.36 0.25 0.17 0.13 0.05 0.15 0.09 0.08
0.74 0.52 0.30 0.33 0.26 0.31 0.49 1.13 1.96 2.22 2.39 2.24 2.24 1.28 1.40 1.13 1.29 1.01 0.81 1.23 0.84 0.79 0.59 0.42 0.26 0.24 0.22 0.14 0.20 0.14 0.12 0.09
0.32 0.35 0.36 0.51 0.36 0.25 0.30 0.72 1.51 1.73 1.38 1.17 1.56 1.07 1.05 1.08 0.85 0.87 0.68 1.14 0.80 0.55 0.38 0.31 0.32 0.34 0.28 0.23 0.17 0.15 0.13 0.07
0.39 0.18 0.25 0.23 0.23 0.24 0.23 0.58 0.82 1.10 0.99 0.40 1.02 0.83 0.60 0.96 0.77 0.75 0.55 1.10 0.66 0.37 0.41 0.31 0.34 0.35 0.35 0.30 0.13 0.20 0.11 0.12
0.47 0.41 0.35 0.30 0.23 0.31 0.30 0.46 0.82 0.74 0.89 0.38 0.26 0.41 0.57 0.96 0.88 0.75 0.51 0.76 0.64 0.52 0.33 0.39 0.37 0.48 0.32 0.25 0.20 0.23 0.08 0.08
0.62 1.02 0.50 0.34 0.28 0.31 0.34 0.25 0.45 0.67 0.78 0.54 0.23 0.13 0.30 0.52 0.72 0.56 0.54 0.62 0.54 0.69 0.62 0.46 0.47 0.73 0.43 0.29 0.18 0.24 0.12 0.04
0.66 1.27 0.93 0.48 0.27 0.32 0.37 0.47 0.44 0.54 0.60 0.56 0.30 0.22 0.21 0.26 0.44 0.68 0.54 0.61 0.43 0.46 0.69 0.50 0.45 0.65 0.64 0.36 0.28 0.23 0.28 0.07
0.50 0.80 1.08 0.97 0.76 0.71 0.56 0.47 0.53 0.50 0.41 0.45 0.31 0.26 0.29 0.22 0.30 0.41 0.71 0.47 0.37 0.48 0.57 0.60 0.41 0.51 0.67 0.52 0.37 0.28 0.32 0.27
0.58 0.72 1.21 1.58 0.87 0.35 0.41 0.64 0.53 0.48 0.32 0.37 0.45 0.33 0.43 0.39 0.36 0.28 0.36 0.52 0.44 0.59 0.70 0.65 0.54 0.44 0.60 0.67 0.38 0.38 0.31 0.37
0.64 1.00 0.97 0.47 0.24 0.15 0.27 0.47 0.59 0.53 0.39 0.30 0.52 0.57 0.55 0.69 0.63 0.60 0.39 0.19 0.39 0.48 0.84 0.89 0.76 0.54 0.82 0.93 0.71 0.37 0.36 0.31
0.33 0.15 0.13 0.04 0.06 0.10 0.16 0.24 0.44 0.47 0.38 0.18 0.34 0.59 0.83 0.69 0.61 0.74 0.69 0.36 0.17 0.31 0.64 1.09 0.97 0.64 0.70 0.78 0.64 0.42 0.30 0.37
0.06 0.08 0.14 0.05 0.04 0.12 0.18 0.37 0.56 0.48 0.43 0.24 0.22 0.30 0.63 0.85 0.75 0.65 0.71 0.45 0.19 0.12 0.24 0.69 0.70 0.68 0.43 0.52 0.34 0.33 0.21 0.27
0.06 0.12 0.15 0.06 0.05 0.04 0.07 0.14 0.23 0.24 0.22 0.18 0.14 0.19 0.30 0.59 0.84 0.69 0.64 0.71 0.51 0.18 0.11 0.31 0.58 0.60 0.63 0.58 0.27 0.24 0.27 0.33
0.08 0.15 0.28 0.21 0.12 0.14 0.20 0.24 0.24 0.24 0.19 0.14 0.11 0.13 0.17 0.27 0.49 0.61 0.57 0.51 0.53 0.43 0.27 0.29 0.53 0.68 0.69 0.58 0.49 0.39 0.42 0.35
0.10 0.13 0.24 0.27 0.22 0.26 0.31 0.33 0.27 0.24 0.16 0.13 0.09 0.14 0.16 0.17 0.29 0.35 0.47 0.55 0.66 0.73 0.71 0.59 0.47 0.64 0.82 0.70 0.50 0.45 0.44 0.45
0.08 0.07 0.10 0.13 0.17 0.13 0.10 0.18 0.22 0.20 0.18 0.23 0.18 0.13 0.11 0.20 0.33 0.31 0.28 0.42 0.80 0.98 1.10 0.81 0.62 0.61 0.71 0.71 0.68 0.50 0.46 0.54
0.12 0.11 0.11 0.07 0.13 0.18 0.21 0.28 0.36 0.40 0.37 0.32 0.21 0.23 0.27 0.41 0.58 0.66 0.52 0.42 0.50 0.72 0.92 1.00 1.04 0.81 0.67 0.59 0.54 0.56 0.61 0.61

GFSFLT2_prec_precacc_123.txt.gz
Total_Precipitation_Accumulation
10.33 6.89 6.24 5.55 6.20 3.91 1.58 1.50 1.65 2.05 2.18 2.17 2.52 2.89 1.96 1.43 0.90 0.66 0.69 0.71 0.38 0.34 0.29 0.39 0.57 0.53 0.23 0.26 0.29 0.31 0.25 0.72
6.82 5.47 4.75 4.34 4.46 5.06 3.46 2.30 1.97 1.75 1.69 1.58 1.51 2.07 1.98 1.37 0.86 0.64 0.74 0.68 0.48 0.39 0.48 0.62 0.57 0.53 0.54 0.46 0.35 0.26 0.08 0.13
3.54 2.44 1.70 1.94 2.04 2.50 3.09 3.09 2.51 2.53 2.74 1.90 1.43 1.38 1.81 1.37 0.94 0.61 0.69 0.69 0.59 0.49 0.60 0.63 0.53 0.45 0.31 0.24 0.23 0.23 0.13 0.08
1.28 0.80 0.43 0.47 0.60 0.76 1.27 2.04 2.40 2.14 3.45 2.34 1.94 1.11 1.21 1.08 1.16 0.78 0.69 0.89 0.65 0.74 0.60 0.46 0.36 0.25 0.17 0.13 0.09 0.19 0.09 0.11
0.74 0.52 0.30 0.33 0.26 0.31 0.49 1.13 1.96 2.22 2.39 2.24 2.24 1.28 1.40 1.13 1.29 1.01 0.81 1.23 0.84 0.79 0.59 0.42 0.26 0.24 0.22 0.14 0.21 0.15 0.12 0.09
0.32 0.35 0.36 0.51 0.36 0.25 0.30 0.73 1.52 1.73 1.38 1.17 1.56 1.07 1.05 1.08 0.85 0.87 0.68 1.15 0.80 0.55 0.38 0.31 0.32 0.34 0.28 0.23 0.17 0.15 0.13 0.07
0.39 0.18 0.25 0.23 0.23 0.24 0.23 0.58 0.82 1.10 0.99 0.40 1.02 0.83 0.60 0.96 0.77 0.75 0.55 1.10 0.66 0.37 0.41 0.32 0.34 0.35 0.35 0.30 0.13 0.20 0.11 0.12
0.47 0.41 0.35 0.30 0.23 0.31 0.30 0.46 0.82 0.74 0.89 0.38 0.26 0.41 0.57 0.96 0.88 0.75 0.51 0.76 0.64 0.52 0.33 0.39 0.37 0.48 0.32 0.25 0.20 0.23 0.08 0.08
0.62 1.02 0.50 0.34 0.28 0.31 0.34 0.25 0.45 0.67 0.78 0.54 0.23 0.13 0.30 0.52 0.72 0.56 0.54 0.62 0.54 0.69 0.62 0.46 0.47 0.73 0.43 0.29 0.18 0.24 0.12 0.04
0.66 1.27 0.93 0.48 0.27 0.33 0.37 0.47 0.44 0.54 0.60 0.56 0.30 0.22 0.22 0.27 0.44 0.68 0.54 0.61 0.43 0.46 0.69 0.50 0.45 0.65 0.64 0.36 0.28 0.24 0.28 0.07
0.50 0.80 1.08 0.97 0.76 0.72 0.57 0.48 0.53 0.50 0.41 0.45 0.31 0.26 0.29 0.22 0.30 0.41 0.71 0.47 0.37 0.48 0.57 0.60 0.41 0.51 0.67 0.52 0.37 0.28 0.32 0.27
0.58 0.72 1.21 1.58 0.87 0.36 0.42 0.65 0.54 0.49 0.32 0.37 0.45 0.33 0.43 0.39 0.36 0.28 0.36 0.52 0.44 0.59 0.70 0.65 0.54 0.44 0.60 0.68 0.39 0.39 0.31 0.37
0.64 1.00 0.97 0.47 0.24 0.15 0.28 0.47 0.61 0.54 0.39 0.30 0.52 0.57 0.55 0.69 0.63 0.60 0.39 0.19 0.39 0.49 0.85 0.89 0.77 0.55 0.84 0.95 0.73 0.38 0.36 0.31
0.33 0.15 0.13 0.05 0.06 0.10 0.17 0.25 0.45 0.48 0.39 0.18 0.35 0.59 0.83 0.69 0.61 0.74 0.69 0.36 0.18 0.32 0.66 1.10 0.99 0.66 0.73 0.80 0.66 0.43 0.30 0.37
0.06 0.08 0.14 0.05 0.04 0.13 0.23 0.39 0.57 0.49 0.45 0.25 0.23 0.31 0.63 0.85 0.75 0.65 0.71 0.46 0.19 0.12 0.25 0.69 0.71 0.70 0.45 0.54 0.35 0.34 0.21 0.27
0.06 0.12 0.15 0.06 0.05 0.04 0.07 0.15 0.24 0.24 0.23 0.20 0.19 0.24 0.32 0.60 0.84 0.69 0.64 0.71 0.51 0.18 0.11 0.32 0.59 0.60 0.65 0.59 0.28 0.24 0.27 0.34
0.08 0.15 0.28 0.21 0.12 0.15 0.21 0.24 0.25 0.27 0.21 0.15 0.16 0.23 0.33 0.35 0.54 0.65 0.59 0.53 0.54 0.43 0.28 0.29 0.54 0.69 0.69 0.58 0.52 0.41 0.43 0.36
0.10 0.13 0.24 0.27 0.23 0.27 0.33 0.35 0.30 0.24 0.16 0.14 0.14 0.32 0.33 0.32 0.46 0.52 0.64 0.67 0.71 0.73 0.71 0.60 0.47 0.65 0.83 0.71 0.52 0.47 0.45 0.46
0.08 0.07 0.11 0.13 0.18 0.15 0.12 0.21 0.24 0.21 0.19 0.25 0.29 0.35 0.24 0.28 0.41 0.40 0.32 0.44 0.81 0.99 1.10 0.81 0.62 0.62 0.71 0.72 0.70 0.52 0.47 0.54
0.12 0.12 0.13 0.09 0.15 0.21 0.23 0.31 0.39 0.42 0.38 0.37 0.28 0.41 0.37 0.49 0.65 0.71 0.54 0.45 0.53 0.75 0.96 1.01 1.05 0.82 0.68 0.60 0.55 0.57 0.62 0.62